Eastsound, WA
on Saturday, November 3, 2012

Saturday
Previous Day Next Day
Daily Summary
 ActualAverage (KBLI)Record (KBLI)
Temperature
Mean Temperature °F 46°F  
Max Temperature 55°F 53°F 67°F (2010)
Min Temperature 51°F 39°F 22°F (2002)
Degree Days
Heating Degree Days 12 19  
Month to date heating degree days 57  
Cooling Degree Days 0 0  
Month to date cooling degree days 0  
Year to date cooling degree days 42  
Growing Degree Days3 (Base °F )  
Moisture
Dew Point 51°F   
Average Humidity 88    
Maximum Humidity 100    
Minimum Humidity 77    
Precipitation
Precipitation 0.00 in 0.18 in 2.83 in (1989)
Month to date precipitation 0.55  
Year to date precipitation 26.36  
Wind
Wind Speed 10 mph   
Max Wind Speed 16 mph   
Max Gust Speed 25 mph   
Visibility 10 miles   
Events Rain   

Key: T is trace of precipitation, MM is missing value
Source: NWS Daily Summary
Time(PDT)TemperatureDew PointHumidity Pressure Visibility Wind DirectionWind SpeedGust SpeedPrecipitationEvents Conditions
12:15 AM 55.4°F 50.0°F 82% 29.89 in 10.0 miles South 11.5 mph 19.6 mph N/A   Overcast
12:35 AM 55.4°F 50.0°F 82% 29.89 in 10.0 miles South 11.5 mph 20.7 mph N/A   Mostly Cloudy
12:55 AM 55.4°F 48.2°F 77% 29.88 in 10.0 miles South 16.1 mph 21.9 mph N/A   Overcast
1:15 AM 55.4°F 50.0°F 82% 29.89 in 10.0 miles South 15.0 mph 20.7 mph N/A Rain Light Rain
1:35 AM 55.4°F 50.0°F 82% 29.90 in 10.0 miles South 12.7 mph 25.3 mph N/A Rain Light Rain
1:55 AM 53.6°F 50.0°F 88% 29.89 in 9.0 miles South 11.5 mph 20.7 mph N/A Rain Light Rain
2:15 AM 55.4°F 50.0°F 82% 29.89 in 10.0 miles South 10.4 mph 20.7 mph N/A Rain Light Rain
2:35 AM 55.4°F 50.0°F 82% 29.89 in 10.0 miles South 12.7 mph 18.4 mph N/A   Mostly Cloudy
2:55 AM 55.4°F 50.0°F 82% 29.89 in 10.0 miles South 15.0 mph 24.2 mph N/A   Overcast
3:15 AM 55.4°F 50.0°F 82% 29.90 in 10.0 miles South 11.5 mph 25.3 mph N/A   Overcast
3:35 AM 55.4°F 50.0°F 82% 29.90 in 10.0 miles South 11.5 mph 23.0 mph N/A   Overcast
3:55 AM 55.4°F 50.0°F 82% 29.90 in 10.0 miles South 12.7 mph 25.3 mph N/A   Overcast
4:15 AM 55.4°F 50.0°F 82% 29.90 in 10.0 miles South 15.0 mph 21.9 mph N/A   Overcast
4:35 AM 55.4°F 50.0°F 82% 29.90 in 10.0 miles South 13.8 mph 21.9 mph N/A   Overcast
4:55 AM 55.4°F 50.0°F 82% 29.91 in 10.0 miles South 13.8 mph 24.2 mph N/A   Mostly Cloudy
5:15 AM 55.4°F 50.0°F 82% 29.91 in 10.0 miles South 11.5 mph 24.2 mph N/A   Overcast
5:35 AM 55.4°F 50.0°F 82% 29.91 in 10.0 miles South 10.4 mph 23.0 mph N/A   Overcast
5:55 AM 55.4°F 50.0°F 82% 29.92 in 10.0 miles South 11.5 mph 18.4 mph N/A   Overcast
6:15 AM 55.4°F 50.0°F 82% 29.92 in 10.0 miles South 10.4 mph 19.6 mph N/A Rain Light Rain
6:35 AM 53.6°F 50.0°F 88% 29.93 in 10.0 miles South 13.8 mph 20.7 mph N/A   Overcast
6:55 AM 53.6°F 50.0°F 88% 29.94 in 10.0 miles South 10.4 mph - N/A   Overcast
7:15 AM 53.6°F 50.0°F 88% 29.94 in 10.0 miles South 11.5 mph 16.1 mph N/A   Overcast
7:35 AM 53.6°F 50.0°F 88% 29.94 in 10.0 miles South 9.2 mph - N/A   Overcast
7:55 AM 53.6°F 50.0°F 88% 29.95 in 10.0 miles SSE 4.6 mph - N/A   Overcast
8:35 AM 55.4°F 50.0°F 82% 29.95 in 10.0 miles South 8.1 mph - N/A   Overcast
8:55 AM 55.4°F 50.0°F 82% 29.95 in 10.0 miles South 12.7 mph 18.4 mph N/A   Mostly Cloudy
9:15 AM 55.4°F 50.0°F 82% 29.95 in 10.0 miles South 6.9 mph 16.1 mph N/A   Mostly Cloudy
9:35 AM 55.4°F 50.0°F 82% 29.94 in 10.0 miles South 8.1 mph - N/A   Partly Cloudy
9:55 AM 55.4°F 50.0°F 82% 29.95 in 10.0 miles South 9.2 mph 18.4 mph N/A   Scattered Clouds
10:15 AM 55.4°F 50.0°F 82% 29.96 in 10.0 miles South 10.4 mph 18.4 mph N/A   Mostly Cloudy
10:35 AM 55.4°F 51.8°F 88% 29.96 in 10.0 miles South 10.4 mph 17.3 mph N/A   Mostly Cloudy
10:55 AM 55.4°F 51.8°F 88% 29.96 in 10.0 miles South 8.1 mph - N/A   Mostly Cloudy
11:15 AM 55.4°F 51.8°F 88% 29.95 in 10.0 miles South 8.1 mph - N/A   Overcast
11:35 AM 55.4°F 51.8°F 88% 29.96 in 10.0 miles South 8.1 mph - N/A   Mostly Cloudy
11:55 AM 55.4°F 51.8°F 88% 29.97 in 10.0 miles South 5.8 mph - N/A   Overcast
12:15 PM 55.4°F 51.8°F 88% 29.96 in 10.0 miles South 6.9 mph - N/A   Overcast
12:35 PM 55.4°F 51.8°F 88% 29.98 in 9.0 miles SSW 10.4 mph - N/A Rain Light Rain
12:55 PM 55.4°F 53.6°F 94% 29.98 in 4.0 miles South 6.9 mph - N/A Rain Light Rain
1:15 PM 53.6°F 53.6°F 100% 29.98 in 3.0 miles South 6.9 mph - N/A Rain Rain
1:35 PM 53.6°F 53.6°F 100% 29.98 in 3.0 miles South 5.8 mph - N/A Rain Light Rain
1:55 PM 53.6°F 53.6°F 100% 29.98 in 5.0 miles South 6.9 mph - N/A Rain Light Rain
2:15 PM 53.6°F 53.6°F 100% 29.98 in 9.0 miles South 5.8 mph - N/A Rain Light Rain
2:35 PM 55.4°F 53.6°F 94% 29.98 in 10.0 miles South 6.9 mph - N/A   Mostly Cloudy
2:55 PM 55.4°F 53.6°F 94% 29.98 in 10.0 miles SSW 6.9 mph - N/A Rain Light Rain
3:15 PM 55.4°F 53.6°F 94% 29.97 in 10.0 miles South 4.6 mph - N/A   Scattered Clouds
3:35 PM 55.4°F 53.6°F 94% 29.99 in 10.0 miles South 6.9 mph - N/A   Mostly Cloudy
3:55 PM 55.4°F 53.6°F 94% 29.98 in 10.0 miles South 8.1 mph - N/A   Mostly Cloudy
4:15 PM 55.4°F 53.6°F 94% 30.00 in 10.0 miles South 8.1 mph - N/A   Mostly Cloudy
4:35 PM 55.4°F 53.6°F 94% 30.01 in 8.0 miles South 3.5 mph - N/A Rain Light Rain
4:55 PM 55.4°F 53.6°F 94% 30.02 in 10.0 miles South 3.5 mph - N/A   Mostly Cloudy
5:15 PM 55.4°F 53.6°F 94% 30.02 in 10.0 miles Calm Calm - N/A   Mostly Cloudy
5:35 PM 55.4°F 53.6°F 94% 30.02 in 10.0 miles South 5.8 mph - N/A   Mostly Cloudy
5:55 PM 55.4°F 53.6°F 94% 30.03 in 10.0 miles SSW 11.5 mph - N/A   Mostly Cloudy
6:15 PM 55.4°F 53.6°F 94% 30.03 in 8.0 miles South 9.2 mph - N/A   Overcast
6:35 PM 53.6°F 53.6°F 100% 30.04 in 10.0 miles SSW 11.5 mph - N/A   Mostly Cloudy
6:55 PM 53.6°F 53.6°F 100% 30.05 in 10.0 miles SSW 12.7 mph - N/A   Partly Cloudy
7:35 PM 53.6°F 51.8°F 94% 30.06 in 10.0 miles South 9.2 mph - N/A   Clear
7:55 PM 53.6°F 51.8°F 94% 30.07 in 10.0 miles South 10.4 mph - N/A   Clear
8:15 PM 53.6°F 50.0°F 88% 30.07 in 10.0 miles SSW 10.4 mph - N/A   Clear
8:35 PM 53.6°F 50.0°F 88% 30.08 in 10.0 miles SSW 8.1 mph - N/A   Clear
8:55 PM 53.6°F 50.0°F 88% 30.09 in 10.0 miles South 4.6 mph - N/A   Clear
9:15 PM 53.6°F 50.0°F 88% 30.11 in 10.0 miles South 6.9 mph - N/A   Clear
9:35 PM 53.6°F 50.0°F 88% 30.12 in 10.0 miles South 4.6 mph - N/A   Clear
9:55 PM 53.6°F 50.0°F 88% 30.12 in 10.0 miles South 3.5 mph - N/A   Clear
10:15 PM 53.6°F 50.0°F 88% 30.13 in 10.0 miles North - - N/A   Clear
10:35 PM 53.6°F 50.0°F 88% 30.13 in 10.0 miles South 5.8 mph - N/A   Clear
10:55 PM 51.8°F 50.0°F 94% 30.13 in 10.0 miles South 8.1 mph - N/A   Clear
11:15 PM 53.6°F 50.0°F 88% 30.14 in 10.0 miles South 6.9 mph - N/A   Clear
11:35 PM 53.6°F 50.0°F 88% 30.13 in 10.0 miles South 6.9 mph - N/A   Clear
11:55 PM 53.6°F 50.0°F 88% 30.14 in 10.0 miles South 6.9 mph - N/A   Clear
Moon Phase
Nov. 03 Nov. 06 Nov. 13 Nov. 20 Nov. 28
Sunrise:08:02 AM (PDT) Moon Rise:09:25 PM (PDT)11/3
Sunset:05:47 PM (PDT) Moon Set:12:18 PM (PDT)11/3

Copyright © 2014 The Weather Underground, Inc.